RH
91 80 98 98 91 80 52 67 86 81 78 92 94 88 71 76 81 78 82 81 77 66 59 52 44 44 42 38 38 33 31 41 41 39 39 39 39 39 39 40 42 45 45 44
95 67 90 98 100 88 77 52 69 70 81 81 89 91 84 79 74 80 77 68 72 79 62 52 47 48 45 42 36 33 30 28 32 38 40 42 46 46 46 46 47 48 50 50
84 77 85 98 98 90 85 68 66 66 74 88 87 87 76 61 53 64 58 56 53 52 56 54 44 50 48 42 36 32 31 29 34 38 43 47 46 42 44 44 44 50 58 57
84 90 96 98 97 89 96 77 72 69 77 82 79 91 60 60 55 49 43 47 46 47 44 46 47 44 42 42 40 36 34 29 26 26 27 30 32 37 42 51 52 51 52 51
95 77 84 98 87 96 95 80 84 84 82 79 78 86 68 54 40 39 33 31 39 50 48 46 45 47 42 36 39 37 34 32 30 28 26 22 23 25 29 34 37 38 34 32
87 96 88 95 97 99 97 99 99 96 94 91 80 80 70 48 33 32 30 32 33 48 49 52 49 50 43 41 37 36 37 31 24 21 23 25 22 18 16 15 15 16 16 16
96 97 79 74 98 98 99 94 98 98 99 92 76 79 69 51 44 41 40 36 30 36 48 52 54 51 47 46 46 42 38 30 23 20 17 16 17 16 14 13 12 13 15 17
96 96 89 81 94 98 99 89 79 90 92 91 75 92 62 45 39 40 31 31 33 32 37 53 56 49 47 49 47 43 37 31 22 17 14 14 14 14 14 15 15 17 20 21
94 97 85 98 90 97 100 95 84 84 81 79 68 62 51 44 38 36 32 29 28 30 38 48 49 46 42 40 37 29 22 20 19 20 22 23 22 22 22 23 24 23 21 20
94 98 99 94 99 98 91 93 91 89 98 91 70 64 52 39 36 39 33 32 35 40 44 51 50 48 49 42 32 29 30 32 33 31 29 28 27 25 23 22 22 20 20 20
87 81 100 77 97 97 97 100 91 85 92 93 91 54 44 42 40 45 37 41 39 46 54 63 64 58 48 40 38 38 38 37 36 33 30 28 27 26 24 22 22 21 21 23
90 82 100 100 99 93 84 78 86 92 98 96 76 63 45 37 43 49 52 48 48 56 56 57 57 50 46 44 43 41 38 35 32 29 28 27 25 25 24 25 27 30 32 34
87 84 96 98 94 96 96 92 84 86 96 91 78 60 43 44 34 38 48 53 54 57 53 49 50 48 46 42 40 39 41 41 42 40 39 38 37 37 35 35 35 36 37 39
82 84 76 76 69 79 92 91 100 98 92 86 79 66 50 56 47 35 40 53 62 61 60 53 50 48 51 50 52 55 52 47 41 36 33 32 38 39 40 40 38 34 29 27
85 88 83 70 72 74 74 66 84 93 88 89 78 70 56 54 45 45 43 60 73 71 62 52 50 59 60 58 55 52 51 47 42 40 40 43 45 44 43 32 27 23 18 16
72 62 78 73 72 78 80 83 86 85 87 87 77 68 61 48 51 50 49 67 70 60 58 64 59 56 57 66 71 72 69 69 67 61 60 56 53 45 32 30 26 19 15 16
70 68 60 56 62 64 59 44 56 62 69 84 92 63 66 51 57 51 54 60 62 64 65 60 56 68 80 81 83 82 82 80 79 76 71 64 53 39 36 31 26 28 30 28
73 73 61 75 81 81 42 56 51 43 41 62 73 70 72 60 51 57 66 66 65 65 63 58 69 83 85 86 88 91 90 89 92 89 78 68 59 46 44 39 36 37 37 41
79 86 78 77 82 56 42 56 63 60 54 61 52 52 67 69 56 57 70 74 66 62 62 67 82 84 87 92 95 93 100 97 91 84 77 71 68 51 50 51 49 48 50 45
85 90 89 90 82 81 80 81 81 80 70 62 54 52 61 68 58 53 66 68 63 62 64 85 87 91 95 95 96 100 98 90 90 83 80 73 72 59 56 58 55 52 42 47
92 94 92 93 86 64 62 71 76 82 82 88 78 62 62 62 66 65 64 66 66 64 88 93 94 94 92 97 100 98 91 86 87 87 78 70 67 62 58 55 50 49 57 70
79 80 86 88 83 78 62 77 79 91 94 94 66 80 70 69 69 71 72 76 90 93 95 93 89 91 96 99 93 89 93 90 92 85 72 64 65 61 62 59 61 69 71 68
83 77 75 70 70 73 80 80 83 95 99 99 99 80 78 78 82 85 97 97 94 97 94 94 92 96 98 90 87 90 99 92 90 89 82 73 66 67 67 71 73 72 64 35
82 84 85 83 77 79 78 77 80 94 98 99 92 96 99 98 95 97 99 98 95 93 90 93 94 99 91 86 84 88 96 98 97 94 90 77 77 76 75 73 65 41 25 17
87 87 85 80 80 82 79 84 83 95 98 96 88 86 87 90 96 98 98 97 95 97 97 98 94 99 92 84 81 81 84 90 94 95 92 82 83 80 79 57 30 26 20 16
78 74 78 78 82 90 85 86 87 93 93 92 92 90 92 94 96 98 98 97 99 99 97 95 99 92 95 84 79 77 79 81 86 96 85 85 86 81 57 30 28 24 20 16
Wind_Speed
37 40 37 33 33 25 31 38 17 25 23 24 24 28 15 25 32 22 28 29 29 27 26 26 27 26 27 27 26 25 27 28 30 30 28 28 26 25 24 22 22 23 23 22
32 44 42 31 31 19 25 33 27 20 20 28 26 27 28 24 27 32 26 29 31 32 32 32 35 32 32 31 29 27 27 29 31 32 31 31 28 29 29 29 30 27 25 26
38 33 37 27 32 20 23 29 29 18 27 16 25 31 31 30 36 35 38 43 39 34 41 35 34 32 30 30 31 31 29 29 29 30 32 32 34 36 35 33 31 29 28 29
29 25 18 20 30 20 21 23 25 22 16 19 20 6 22 33 37 37 41 46 48 46 40 40 38 33 33 33 32 30 30 30 31 30 31 33 35 35 33 32 33 33 33 33
10 28 16 15 38 21 14 21 19 23 17 10 16 10 25 22 31 42 40 40 51 45 45 39 38 32 31 32 34 33 32 31 32 33 34 34 36 36 37 37 37 37 38 38
6 19 19 21 36 27 15 19 18 18 12 6 18 20 16 27 29 27 35 36 39 45 50 47 44 38 34 32 32 32 31 30 30 31 32 34 34 35 36 37 39 39 39 40
6 17 22 21 19 29 20 19 5 3 5 4 11 19 29 9 12 19 24 25 30 41 44 47 45 39 37 36 34 34 35 35 35 35 35 35 35 35 35 35 36 37 37 38
8 8 20 18 30 22 30 25 5 6 4 3 6 11 25 16 18 22 16 21 28 32 41 41 40 39 38 39 40 41 43 41 39 37 35 34 34 35 35 35 36 36 36 35
8 4 22 21 23 24 29 28 14 3 3 2 8 15 28 29 23 18 17 21 26 30 36 42 39 37 38 39 39 37 34 33 32 30 28 28 29 30 31 31 31 30 29 28
11 7 11 14 23 21 26 25 13 8 2 3 5 11 17 13 13 17 19 22 22 23 25 30 34 33 33 32 30 28 28 27 26 25 26 26 26 27 28 29 28 28 28 27
16 9 11 13 14 24 19 22 13 11 6 4 1 6 6 11 17 20 11 17 17 19 18 22 27 29 27 25 24 24 24 24 25 25 27 28 28 29 29 30 31 31 31 30
11 11 20 17 15 19 24 21 27 8 5 9 3 10 18 14 9 11 12 12 16 15 17 20 21 22 21 22 22 23 23 24 25 26 28 29 29 30 31 32 32 32 32 33
13 8 10 6 16 17 25 27 26 28 13 14 6 5 3 6 9 6 12 14 16 17 17 17 17 18 18 20 20 20 21 22 23 24 26 27 28 30 30 31 31 31 31 30
5 15 9 11 4 17 23 32 31 30 21 20 27 25 25 19 15 8 13 17 17 16 15 17 17 17 17 17 18 19 20 22 23 25 26 27 27 28 28 28 28 27 25 24
6 16 9 7 7 11 17 24 27 33 37 20 26 23 17 18 10 9 11 18 20 18 17 17 16 16 16 16 18 20 21 24 26 26 26 26 26 25 25 23 22 22 21 20
7 6 11 7 7 9 12 15 27 28 32 38 22 20 19 15 11 11 12 17 19 17 15 15 15 15 16 17 19 20 23 24 25 25 24 23 23 22 21 21 20 19 18 18
9 7 9 4 9 7 12 23 25 28 31 31 37 27 18 16 17 16 11 13 14 15 14 13 14 15 17 18 20 22 24 25 23 23 22 22 21 20 19 19 18 18 17 17
6 8 7 4 6 2 6 6 10 22 24 26 32 29 26 21 19 18 12 8 9 13 16 16 16 17 18 20 21 23 26 23 23 23 22 21 21 21 20 18 17 17 17 17
10 9 4 4 7 11 10 10 10 10 13 17 25 22 25 25 21 19 17 15 13 14 15 16 17 19 21 21 24 27 23 25 25 25 23 23 22 22 20 19 18 17 16 15
10 12 11 6 3 4 2 3 4 7 10 9 11 17 23 20 19 18 18 18 17 17 16 17 18 19 20 24 24 22 25 24 25 24 22 23 23 21 19 18 17 15 15 14
8 11 13 11 4 7 7 5 3 2 4 7 5 14 18 21 19 16 18 19 20 18 17 18 19 19 22 20 22 25 26 25 23 22 21 20 18 18 17 16 16 16 15 15
5 7 9 10 6 7 4 5 5 2 4 7 1 8 13 16 15 14 15 14 14 15 16 16 18 19 21 22 24 27 24 21 20 20 19 17 17 17 15 16 16 16 16 15
5 7 3 6 3 2 1 2 4 6 3 4 1 4 7 8 9 12 13 13 13 12 15 17 18 19 21 21 21 16 16 15 15 15 14 14 15 16 16 17 18 17 16 16
6 7 8 7 5 8 10 10 5 6 8 5 5 2 10 15 15 16 15 10 9 11 13 13 15 17 17 16 14 11 11 14 15 15 15 15 15 17 17 17 17 17 17 16
7 8 8 11 10 14 13 6 5 6 6 6 5 6 8 8 7 9 13 11 11 12 13 12 13 12 12 12 12 11 11 12 14 15 17 18 19 20 19 19 18 17 16 16
12 15 16 16 11 8 6 10 8 8 9 8 8 8 10 10 10 12 13 14 13 14 12 12 14 15 12 11 10 10 10 12 14 15 19 19 20 20 20 19 18 17 17 17
Wind_Direction
187 184 202 210 189 202 200 200 205 202 209 209 214 211 169 208 220 227 224 223 206 229 224 233 237 235 237 233 234 242 241 243 246 248 248 250 250 249 253 254 255 257 259 263
174 193 202 220 177 182 190 195 207 208 201 214 221 223 224 207 214 220 222 239 231 225 236 243 249 243 245 248 245 243 243 243 246 251 254 255 251 250 249 257 260 259 264 267
179 188 191 178 175 177 187 193 186 202 206 214 225 237 232 218 225 221 220 226 234 234 237 238 242 245 250 251 248 244 240 239 245 248 251 255 258 260 259 262 265 265 263 265
189 194 218 168 169 167 181 194 202 208 193 210 223 273 243 231 223 220 224 226 229 234 236 233 236 241 245 247 248 245 244 245 245 247 249 252 256 259 262 261 262 263 265 266
171 210 214 196 183 170 172 176 187 208 211 202 220 228 256 244 235 225 225 224 224 229 229 233 231 241 245 243 247 250 252 254 257 257 254 250 251 254 256 257 259 262 265 268
199 197 207 212 183 181 166 162 170 181 196 241 227 218 262 249 245 244 237 237 229 224 225 231 232 239 240 242 248 253 256 255 256 259 260 260 258 255 256 258 259 261 262 264
197 178 195 204 166 195 186 176 114 137 201 218 229 224 234 244 248 248 237 235 235 227 228 232 238 236 238 241 244 248 253 259 263 263 263 262 261 258 257 257 259 259 259 260
170 172 194 208 209 186 192 189 170 170 182 209 210 225 238 252 253 250 228 244 233 228 229 230 234 238 239 243 247 252 258 261 262 263 261 258 255 257 259 260 260 262 263 263
167 150 179 175 193 176 184 194 192 103 120 153 223 257 260 262 266 251 258 253 235 232 225 230 236 240 245 249 254 257 256 255 254 255 255 254 253 252 254 256 258 259 261 262
148 124 204 226 171 176 190 193 194 211 132 252 265 264 252 279 273 255 249 249 242 227 225 229 235 243 250 254 251 248 247 247 247 247 249 250 251 252 254 256 258 260 262 263
146 161 183 199 195 198 191 197 202 187 205 186 269 253 264 274 253 250 262 244 240 232 230 232 238 245 243 235 233 235 238 242 246 249 251 252 254 256 258 260 261 262 264 264
172 167 157 189 203 213 215 216 206 193 195 223 245 270 285 294 269 223 236 244 226 220 228 236 234 227 220 225 229 235 241 246 251 254 257 259 259 260 260 261 262 263 265 266
170 164 144 181 214 220 220 215 220 225 249 227 189 250 214 331 322 252 222 226 226 227 232 231 218 218 218 229 235 241 247 250 254 256 259 262 263 264 264 264 264 264 265 266
187 183 181 193 206 217 216 219 219 219 231 235 237 257 251 293 287 278 233 225 230 237 234 224 221 224 230 234 242 248 255 259 263 266 267 266 265 262 262 262 262 263 263 263
200 193 214 214 228 224 236 231 218 220 228 230 250 258 274 260 266 283 251 226 226 231 235 224 224 228 234 243 253 262 269 271 271 272 271 269 266 261 258 257 259 261 261 261
225 217 207 204 202 209 234 233 230 239 235 234 233 244 248 254 253 250 236 231 234 229 216 211 221 236 249 258 265 271 275 278 278 273 270 268 263 257 254 255 258 258 257 256
226 223 204 206 212 234 257 234 230 235 238 236 235 246 246 240 248 248 222 221 220 210 209 231 247 250 254 263 268 273 279 284 277 269 265 267 257 252 252 255 254 251 250 248
239 221 201 193 182 254 246 230 241 245 250 243 244 247 247 245 247 233 220 210 224 233 242 251 251 252 259 266 269 271 278 279 274 269 263 263 253 248 249 251 249 247 246 245
231 215 208 217 217 280 267 250 251 256 255 248 244 240 240 242 242 220 221 225 235 236 251 253 254 260 267 267 272 279 280 281 274 266 260 257 252 247 248 249 248 246 242 232
222 225 224 211 227 237 252 242 261 265 285 270 250 227 228 221 223 226 224 233 241 260 256 256 263 264 266 277 278 276 283 279 273 266 256 254 246 243 247 245 238 228 221 223
207 213 226 231 253 279 257 249 275 235 318 328 261 222 226 229 232 230 233 242 256 256 258 260 266 266 281 281 282 284 281 275 266 258 252 247 241 239 236 226 216 212 211 198
202 189 213 225 239 267 264 234 217 321 325 327 329 204 215 222 227 229 236 241 243 251 256 266 267 273 278 281 285 283 274 262 257 248 241 238 230 221 212 208 206 198 187 183
218 212 211 217 256 260 305 297 253 245 263 300 192 162 178 200 218 224 227 236 245 256 268 274 281 274 282 285 290 277 262 252 243 240 237 227 212 206 201 194 187 183 185 188
236 241 239 261 274 268 269 267 270 230 238 271 305 258 211 211 221 229 230 215 249 257 267 262 280 270 281 284 289 289 265 246 243 243 227 206 202 193 188 188 192 192 194 199
252 259 265 272 275 277 271 273 238 225 252 256 265 283 283 280 268 255 233 231 251 273 278 271 268 279 290 287 286 285 277 260 249 241 215 202 195 191 191 194 198 202 206 212
268 274 269 274 276 286 289 244 272 245 251 265 271 278 275 267 266 275 280 273 268 267 282 295 267 265 289 283 284 284 277 267 250 233 207 198 197 196 199 203 207 212 217 223